This is the latest recevied weather packets stored in our database for station/object N4DBJ. If no packets are shown the sender has not sent any weather packets the latest 10 day(s).
| Time | Temp. | Humidity | Pressure | Rain* | Wind** | Luminosity | Snow |
|---|---|---|---|---|---|---|---|
| 1777957908 | 15° C | 76% | 1008.3 hPa | 0 mm | - | 0 W/m² | - |
| 1777957606 | 15.56° C | 75% | 1008.2 hPa | 0 mm | - | 0 W/m² | - |
| 1777957304 | 16.11° C | 74% | 1008.2 hPa | 0 mm | - | 0 W/m² | - |
| 1777956998 | 16.11° C | 72% | 1008.1 hPa | 0 mm | - | 0 W/m² | - |
| 1777956697 | 16.11° C | 72% | 1008.4 hPa | 0 mm | - | 0 W/m² | - |
| 1777956393 | 16.67° C | 71% | 1008.3 hPa | 0 mm | - | 0 W/m² | - |
| 1777956090 | 17.22° C | 69% | 1008.1 hPa | 0 mm | - | 0 W/m² | - |
| 1777955786 | 17.22° C | 67% | 1008 hPa | 0 mm | - | 0 W/m² | - |
| 1777955483 | 17.22° C | 67% | 1008 hPa | 0 mm | - | 0 W/m² | - |
| 1777955179 | 17.78° C | 68% | 1008.1 hPa | 0 mm | - | 0 W/m² | - |
| 1777954877 | 17.78° C | 65% | 1008.1 hPa | 0 mm | - | 0 W/m² | - |
| 1777954573 | 17.78° C | 65% | 1008.1 hPa | 0 mm | - | 0 W/m² | - |
| 1777954271 | 17.78° C | 65% | 1007.9 hPa | 0 mm | - | 0 W/m² | - |
| 1777953968 | 18.33° C | 64% | 1007.8 hPa | 0 mm | - | 0 W/m² | - |
| 1777953665 | 18.33° C | 64% | 1007.9 hPa | 0 mm | - | 0 W/m² | - |
| 1777953361 | 18.33° C | 64% | 1007.8 hPa | 0 mm | - | 0 W/m² | - |
| 1777953058 | 18.33° C | 64% | 1007.8 hPa | 0 mm | - | 0 W/m² | - |
| 1777952754 | 18.33° C | 64% | 1007.9 hPa | 0 mm | - | 0 W/m² | - |
| 1777952451 | 18.89° C | 63% | 1007.8 hPa | 0 mm | - | 0 W/m² | - |
| 1777952148 | 18.89° C | 61% | 1007.8 hPa | 0 mm | - | 0 W/m² | - |
| 1777951846 | 19.44° C | 61% | 1007.9 hPa | 0 mm | - | 0 W/m² | - |
| 1777951544 | 20° C | 58% | 1007.9 hPa | 0 mm | - | 0 W/m² | - |
| 1777951240 | 20° C | 59% | 1007.7 hPa | 0 mm | - | 0 W/m² | - |
| 1777950937 | 20° C | 59% | 1007.7 hPa | 0 mm | - | 0 W/m² | - |
| 1777950633 | 19.44° C | 59% | 1007.4 hPa | 0 mm | - | 0 W/m² | - |
* Rain latest hour (hover to see other rain measurements)
** Current wind speed in m/s (hover to see current wind gust speed)